Theta_e
324 318 313 310 296 291 287 292 296 298 300 302 304 303 306 313 317 311 328 333 338 338 351 359 362 363 363 362 361 360 359 359 360 359 358 358 357 355 354 353 351 348 345 343 341 339 337 336 335
324 318 308 301 291 285 287 294 294 298 302 305 306 306 309 314 325 329 330 334 337 340 349 353 361 362 362 361 360 359 359 359 359 359 358 357 357 355 352 351 349 346 343 342 340 338 338 337 336
326 319 302 297 289 288 289 294 297 302 304 304 303 308 317 320 329 331 334 335 336 341 346 351 361 362 362 361 360 359 359 359 359 359 358 357 356 355 353 352 349 345 344 342 340 339 339 339 338
318 314 305 296 292 294 295 296 299 302 305 304 304 304 321 329 330 332 334 334 336 340 343 355 359 360 361 361 360 359 359 359 359 359 359 357 355 355 353 351 350 347 344 341 341 341 341 340 340
320 309 298 291 294 297 299 299 300 300 302 304 305 304 318 326 337 335 332 335 333 339 340 351 357 359 361 361 360 359 359 358 359 359 359 358 357 355 353 351 348 347 346 343 342 344 345 344 343
310 304 293 294 296 301 303 303 302 300 303 305 305 306 318 333 334 333 333 330 334 336 338 347 356 358 358 359 359 359 358 358 359 359 359 358 357 355 353 351 349 348 348 347 346 346 346 346 346
308 298 294 295 298 300 303 305 303 303 304 306 307 306 317 329 335 333 328 328 331 334 338 343 347 353 358 358 357 358 357 357 358 357 357 357 357 355 354 352 350 349 348 348 347 347 347 346 347
309 305 299 298 299 298 306 307 306 307 308 312 311 304 308 323 334 332 329 327 329 331 336 338 342 346 348 351 357 357 357 357 357 357 357 356 356 355 354 351 350 349 348 348 348 348 348 347 347
308 300 297 300 301 302 308 306 310 314 310 311 311 310 314 330 335 331 332 334 334 334 334 338 341 340 341 342 352 356 358 357 357 357 357 354 351 350 349 349 348 349 348 348 349 349 349 347 347
300 295 300 307 307 305 308 307 308 308 308 309 310 315 315 324 328 329 328 327 329 330 334 338 340 341 340 343 342 345 348 351 351 351 351 350 344 342 345 347 348 348 348 347 348 349 349 346 338
296 295 303 305 306 307 306 306 309 306 304 307 307 311 314 313 319 324 322 330 329 330 333 336 339 340 339 337 340 340 340 341 341 341 341 343 339 339 341 336 339 337 345 337 342 341 341 337 336
291 297 300 301 304 304 303 306 305 306 306 311 311 313 312 312 311 312 318 326 333 337 335 334 336 337 337 335 339 339 338 338 338 338 337 337 334 332 333 334 333 333 333 332 332 334 336 336 336
291 294 297 299 299 300 304 303 304 305 309 312 312 313 312 312 311 313 321 323 332 337 338 336 334 333 335 329 334 335 334 336 336 336 336 335 333 332 331 330 329 330 330 330 330 331 334 334 336
292 293 295 296 296 297 298 299 301 303 307 306 307 307 312 312 312 316 324 325 330 338 341 340 337 334 331 330 329 331 332 332 332 334 334 335 334 332 330 327 328 327 330 330 331 330 331 332 334
293 289 292 294 295 296 300 296 297 304 305 305 306 307 310 312 313 315 323 325 328 335 341 342 340 338 333 331 331 332 333 333 333 332 332 335 334 330 329 328 326 328 329 328 329 328 327 328 330
288 286 282 290 295 296 297 291 299 301 301 302 304 305 307 308 312 313 313 324 328 331 335 341 344 340 336 334 332 334 335 336 335 335 335 336 335 332 330 329 327 326 328 328 329 326 324 326 326
285 280 282 287 293 293 293 289 295 299 298 298 299 301 303 305 307 312 314 316 326 330 329 333 341 340 339 338 337 337 338 338 339 339 338 337 336 334 333 331 330 327 327 327 328 326 326 324 325
282 282 285 285 291 292 290 290 294 297 297 297 298 299 300 302 304 307 312 317 320 329 330 329 329 329 333 337 339 339 340 340 340 340 340 339 338 337 334 334 330 329 328 327 325 326 326 324 326
288 286 285 288 292 289 288 290 293 294 294 294 295 297 299 300 304 307 309 314 316 317 323 326 327 326 327 334 336 337 338 341 343 343 342 340 340 339 335 334 332 330 328 329 328 326 325 323 325
287 284 285 288 293 291 289 289 292 293 293 294 295 296 297 299 301 304 306 308 312 314 319 322 325 328 328 333 336 336 338 341 342 342 339 340 342 341 338 335 334 331 330 327 328 327 323 325 326
287 286 286 287 291 291 288 287 289 292 294 295 296 296 297 297 298 301 303 305 307 310 312 320 323 325 328 334 334 328 329 328 332 331 333 336 338 340 341 337 335 333 333 329 329 329 329 326 327
284 292 291 289 286 279 288 278 285 289 291 292 294 294 295 296 298 299 300 301 303 305 309 315 321 325 328 337 337 334 335 333 327 329 335 332 333 336 339 339 336 336 335 332 330 331 332 329 325
287 293 289 289 284 281 283 278 283 289 288 290 292 295 298 300 300 301 303 304 305 304 305 309 320 323 326 331 338 337 335 330 323 321 325 327 330 336 340 340 338 337 335 334 332 331 331 330 328
293 288 286 284 282 275 281 280 280 283 286 289 294 298 300 300 301 302 304 306 306 307 305 306 315 322 325 328 334 334 333 324 321 322 323 324 330 334 339 339 338 338 336 334 333 332 331 331 330
287 281 275 273 273 275 283 281 283 289 293 295 295 297 299 299 299 300 301 304 306 307 308 307 310 319 323 326 329 329 329 326 324 324 325 327 329 332 336 337 336 336 336 335 334 333 332 330 329
284 282 275 271 273 276 283 277 283 293 297 297 298 298 299 298 297 298 301 303 305 307 307 307 305 314 321 324 326 328 326 325 323 324 328 330 332 334 337 338 336 336 336 335 333 334 332 331 328
284 281 284 278 278 274 278 283 289 293 294 296 295 296 296 296 297 298 300 302 304 306 307 306 310 309 318 323 324 321 324 323 324 326 331 333 333 335 336 336 336 336 336 335 334 332 330 331 329
286 288 277 277 273 272 277 279 281 287 290 294 294 294 295 296 297 299 300 302 305 306 306 313 315 307 315 321 322 322 324 325 326 331 332 333 331 335 335 334 334 334 334 334 334 329 331 329 324
283 281 283 280 278 271 271 278 288 289 292 293 294 295 295 295 297 299 301 303 304 304 306 311 316 309 308 313 317 322 324 327 330 332 333 333 334 334 335 335 334 333 333 334 331 327 327 325 323
287 284 283 273 273 281 277 279 291 292 292 293 294 296 297 297 298 300 302 303 304 302 306 307 311 318 311 314 319 324 327 330 331 332 333 333 334 335 336 335 335 335 333 331 328 327 327 325 322
Wind_Speed
5 5 1 4 4 5 4 8 4 8 9 1 4 5 13 13 10 9 1 16 14 17 17 19 20 19 19 20 21 20 20 20 20 19 19 18 17 17 16 15 14 14 13 12 11 10 9 8 7
4 1 5 3 5 1 6 6 4 6 6 11 11 6 5 11 6 6 9 14 21 20 17 19 23 21 20 20 21 20 20 19 19 19 19 18 17 16 16 15 15 14 13 12 11 10 9 8 7
4 1 4 4 4 6 6 3 2 9 9 6 7 5 5 6 2 11 7 17 21 18 15 20 25 22 21 21 21 21 21 19 19 19 18 18 17 16 15 14 13 14 13 12 11 10 9 8 7
2 4 5 4 11 6 6 3 5 12 11 1 4 15 7 3 8 7 18 21 20 16 14 21 25 22 22 22 21 21 20 19 18 18 17 17 17 15 14 13 13 13 13 13 12 10 9 8 6
1 2 2 3 12 4 3 3 5 8 8 11 7 8 5 5 6 14 19 20 24 17 13 16 23 23 21 22 22 21 21 20 19 18 17 17 16 15 15 14 13 12 12 12 12 10 9 8 7
2 3 2 7 17 3 3 3 3 4 7 13 9 9 5 2 6 14 17 20 19 21 18 16 20 20 19 20 21 21 21 20 19 18 17 17 16 16 15 14 14 13 12 11 11 11 9 7 6
5 4 5 5 11 5 2 3 2 5 7 9 7 6 7 2 4 6 5 6 10 13 14 13 14 16 18 17 19 21 21 21 20 19 18 17 16 16 16 15 14 13 12 12 11 11 11 9 8
3 4 3 5 11 5 2 2 3 3 11 7 5 6 11 3 12 9 8 7 7 5 9 11 10 10 9 10 17 18 20 21 21 20 19 18 17 16 16 14 14 14 13 12 11 11 11 10 9
2 3 6 6 8 1 7 7 3 3 7 6 6 6 11 3 13 9 7 4 5 4 6 7 9 6 6 4 9 14 18 18 19 17 18 14 8 9 11 12 14 14 13 12 12 11 11 11 11
4 5 8 5 4 8 16 5 11 7 12 12 6 8 10 5 7 2 9 11 9 12 9 10 11 9 7 7 5 5 7 7 8 9 10 8 7 6 7 10 14 13 13 13 12 12 12 11 4
3 8 4 4 2 3 13 14 9 9 20 5 11 12 8 4 0 8 4 4 5 5 7 9 10 9 10 8 5 3 3 4 4 7 7 6 5 5 4 3 4 4 10 4 7 6 5 5 4
4 5 3 2 4 6 15 17 17 18 24 14 9 8 6 7 6 6 9 10 6 7 7 8 9 9 10 5 6 7 7 5 5 7 7 6 4 5 5 4 5 5 4 5 5 3 5 5 6
4 4 4 5 5 7 11 16 16 27 24 14 13 8 9 8 6 7 9 8 13 10 10 10 11 11 10 7 5 4 4 5 6 5 6 6 6 6 5 4 4 5 4 4 5 5 5 5 6
2 2 5 4 5 5 7 11 5 28 6 13 14 10 9 10 6 3 6 6 8 14 15 12 12 11 8 9 7 7 6 6 4 4 6 8 6 5 6 5 6 5 6 5 5 6 5 5 5
3 6 5 5 6 7 6 14 23 21 9 11 8 9 7 11 6 9 11 9 8 9 13 18 20 17 16 17 13 9 10 7 6 7 6 9 8 6 7 6 6 7 6 6 4 5 4 4 4
2 5 3 6 2 7 10 24 2 6 7 12 12 8 11 6 9 7 9 9 9 5 9 12 13 15 16 14 13 10 10 12 11 9 7 11 11 9 8 7 7 6 5 6 6 4 4 5 5
5 1 2 7 4 5 7 3 7 8 8 10 10 10 7 13 7 8 7 9 11 12 9 9 12 15 17 15 10 10 10 8 7 7 8 11 12 12 10 8 6 6 5 6 6 3 5 4 4
3 1 3 4 5 6 13 9 5 7 5 8 8 10 12 13 11 5 7 9 9 12 11 10 8 8 12 8 5 4 4 4 5 7 8 12 9 10 10 7 6 7 6 5 5 6 6 4 6
4 2 2 4 5 5 7 15 9 7 6 8 9 8 10 11 9 9 7 7 8 7 8 10 10 11 5 3 4 4 4 5 5 8 12 9 8 11 10 6 7 8 9 10 8 5 6 4 4
4 1 1 4 5 7 10 23 10 3 5 5 8 8 8 10 12 12 11 6 6 10 11 12 14 17 11 10 8 4 5 8 9 7 6 8 10 10 9 10 9 10 6 6 9 8 4 3 5
1 4 2 4 6 6 7 20 12 3 3 6 7 7 8 8 12 14 12 12 8 7 8 10 14 16 15 16 3 3 3 2 3 3 4 8 9 9 10 10 8 9 8 8 9 9 9 5 4
2 1 0 5 6 3 5 16 5 8 11 4 8 8 10 11 11 9 12 12 14 12 8 10 14 14 14 16 10 10 13 11 5 4 5 5 7 8 8 9 10 9 8 7 8 7 6 5 5
4 2 3 3 4 3 2 5 4 14 13 16 11 6 5 8 8 10 12 12 14 13 11 9 10 13 15 13 15 14 14 8 3 2 5 4 4 6 7 9 10 10 8 7 8 7 7 4 4
3 3 5 4 2 1 7 5 5 2 2 8 5 8 8 8 10 11 11 10 11 10 11 9 9 12 13 13 16 17 18 11 5 4 5 5 3 4 7 9 10 9 8 8 6 7 7 7 4
6 6 4 5 3 6 3 5 11 16 16 5 9 9 10 10 9 10 11 13 13 13 14 13 8 12 12 13 14 16 15 13 13 10 7 6 5 4 7 8 8 7 6 6 6 6 6 7 5
4 7 6 6 3 13 5 8 9 7 8 8 8 11 10 13 9 9 11 12 13 13 14 13 13 14 10 13 16 16 15 9 8 9 6 5 5 6 9 8 7 7 7 6 6 5 5 5 4
2 4 5 4 1 2 6 8 11 19 9 10 8 9 11 13 13 11 11 10 13 10 13 15 14 14 13 14 14 9 8 8 10 9 7 5 5 5 8 8 7 7 7 7 7 5 6 6 5
6 4 1 2 3 5 6 6 11 12 13 9 12 10 13 13 12 14 12 12 12 9 12 15 12 14 16 13 12 11 12 9 8 8 8 8 6 7 9 9 8 7 6 7 7 4 5 7 4
2 1 3 3 4 5 4 8 7 8 10 12 14 15 11 13 14 13 14 13 12 9 11 13 11 10 10 8 8 8 7 7 9 8 9 9 9 9 10 10 8 7 7 6 6 6 6 6 6
5 5 5 5 6 5 3 16 5 15 11 10 15 18 13 13 12 12 14 13 15 11 10 11 10 8 10 10 8 9 8 9 9 9 9 10 10 9 10 10 9 9 8 8 8 7 6 7 6
Wind_Direction
320 302 106 45 57 63 248 251 259 324 336 278 280 188 220 220 182 211 160 151 124 150 162 162 162 162 159 153 145 143 143 143 143 142 141 143 143 144 143 145 146 147 150 150 150 147 145 144 142
304 236 44 82 94 220 260 242 279 260 260 290 291 279 252 233 182 130 130 150 151 152 169 158 161 164 163 160 150 149 150 150 149 147 147 148 149 150 150 155 154 155 156 156 158 155 158 155 156
282 344 88 109 147 213 221 221 20 283 266 274 294 279 259 221 116 172 135 145 143 153 176 158 160 165 168 164 157 155 156 156 154 151 154 155 156 156 158 164 161 164 164 164 167 167 169 170 166
278 1 40 96 243 254 224 322 328 330 323 109 297 302 287 242 161 175 138 142 143 151 174 164 158 167 172 166 161 160 159 159 158 157 159 162 163 163 164 171 170 174 172 173 175 177 180 181 177
24 44 96 242 262 249 252 259 298 303 287 301 312 275 261 1 63 126 145 153 150 158 171 165 160 167 177 168 165 166 164 164 161 165 165 167 168 172 174 178 180 184 181 180 182 183 187 186 183
92 106 90 230 250 268 274 234 267 267 294 302 331 304 261 49 126 163 161 166 158 163 159 162 164 169 179 173 170 169 169 166 165 169 172 175 177 181 182 184 187 187 189 189 188 186 194 193 192
139 112 213 264 265 281 241 201 246 272 306 294 308 303 302 73 54 67 81 104 151 158 149 156 161 175 180 179 178 174 170 169 170 175 177 181 185 188 189 188 192 193 193 193 196 191 193 198 200
155 128 227 237 256 282 203 325 305 314 295 300 0 1 327 331 104 88 64 72 95 134 148 153 156 170 173 183 189 181 173 175 175 179 180 184 188 195 195 190 197 199 197 199 201 200 198 203 205
120 174 208 227 251 277 317 3 188 292 293 333 311 19 300 77 105 100 93 50 92 135 163 149 154 158 149 171 197 186 181 181 181 183 185 183 187 198 200 195 204 205 202 203 207 205 206 206 214
177 194 214 204 235 319 296 284 310 326 322 300 318 327 2 59 78 50 164 178 194 183 195 172 164 169 148 181 197 195 183 188 187 189 189 187 178 179 187 199 211 214 211 208 210 210 213 214 204
209 236 193 259 2 332 295 296 310 308 290 272 304 309 336 350 278 175 207 180 273 306 183 180 176 169 172 189 170 175 199 189 186 183 179 189 165 180 188 175 200 200 219 206 208 208 205 199 187
249 221 169 282 278 270 272 298 289 290 268 288 287 276 292 297 292 244 192 179 185 169 240 181 183 177 184 185 188 194 195 196 194 201 181 174 173 181 187 183 187 188 202 193 188 195 190 192 197
230 286 291 285 282 266 272 272 274 274 279 286 277 272 264 266 272 279 273 202 160 173 187 207 182 184 186 178 180 181 223 209 206 195 187 182 185 192 185 184 183 206 189 189 191 198 196 195 205
310 267 273 273 259 240 260 271 250 266 306 284 280 276 234 250 218 183 267 241 203 179 182 176 199 187 175 195 192 181 189 204 209 225 194 192 196 185 193 177 201 209 201 194 192 198 197 207 204
298 336 343 217 218 227 220 260 239 269 307 288 276 295 252 246 224 196 214 232 212 210 199 183 191 184 196 193 210 194 210 194 181 217 203 187 190 194 189 192 193 211 205 183 180 196 167 190 212
351 48 28 283 275 255 177 249 281 359 337 309 318 302 300 271 247 233 215 213 221 215 195 194 192 191 200 205 209 209 206 186 186 195 191 197 184 192 184 201 207 193 182 183 189 177 176 201 198
6 177 217 307 276 273 187 322 346 333 347 314 319 330 344 329 329 291 260 221 208 211 201 199 208 196 200 205 204 206 199 202 179 197 181 201 189 189 191 200 203 183 178 186 189 176 189 183 205
265 294 271 252 297 334 303 294 298 298 309 298 310 317 320 317 302 268 248 250 245 220 210 205 199 214 201 205 199 209 214 196 181 203 201 199 191 190 196 198 181 182 183 187 181 181 196 165 206
268 253 234 265 334 349 281 299 315 276 294 290 299 302 308 304 301 312 311 251 238 242 261 226 206 231 202 160 177 211 214 205 213 214 208 186 177 190 192 196 183 186 193 199 185 180 177 199 163
227 190 322 275 328 333 310 296 298 260 252 269 289 301 291 302 313 315 314 311 249 242 223 232 227 228 215 226 224 218 212 222 219 201 181 181 190 189 187 189 191 190 193 174 180 185 150 180 170
97 125 320 276 313 287 314 290 297 230 279 282 280 287 301 276 294 305 308 306 301 279 250 239 233 229 215 212 148 98 84 139 155 187 182 201 201 193 192 190 184 188 190 189 188 186 183 168 184
337 120 357 328 13 310 58 289 249 271 289 278 270 265 278 309 319 314 317 316 312 296 249 231 236 232 225 202 192 201 214 213 212 196 215 197 189 203 186 190 190 188 191 180 186 182 201 135 162
238 350 327 299 294 11 255 286 112 325 289 278 297 352 310 300 301 301 299 301 298 303 296 268 237 226 230 201 217 206 213 213 151 139 175 199 200 201 193 197 195 187 187 176 166 162 182 168 148
59 34 17 30 47 323 229 207 326 229 316 317 290 292 296 293 286 293 289 285 289 296 295 278 255 242 230 220 207 210 213 197 152 157 191 203 195 198 196 194 191 183 179 164 173 176 174 175 163
65 50 347 341 2 240 274 270 263 299 299 296 282 289 284 279 271 278 297 305 308 306 306 296 265 249 224 215 209 206 209 201 196 200 198 173 174 173 181 170 179 178 167 160 155 167 160 160 155
227 155 161 252 238 281 277 253 254 236 232 255 252 264 275 286 278 271 281 292 294 289 303 305 283 260 207 204 212 212 201 198 197 199 186 190 182 183 167 175 164 160 150 150 150 158 145 162 164
201 176 208 231 100 356 227 268 291 264 236 264 261 250 266 279 291 288 284 274 278 283 293 296 290 259 242 205 207 201 194 177 187 186 174 171 157 159 168 154 150 152 156 155 162 156 159 160 162
160 191 16 8 282 251 262 258 252 276 278 281 287 288 290 292 294 298 293 280 284 276 287 293 285 254 240 221 198 199 192 181 166 153 165 166 148 160 158 149 151 148 149 159 155 149 145 146 156
311 245 91 128 167 219 288 260 221 254 272 276 283 280 275 286 294 299 304 297 282 271 286 285 289 267 234 211 198 177 171 167 157 166 169 166 154 164 160 154 146 154 157 153 140 140 141 154 151
184 226 156 130 261 225 221 267 228 258 285 296 280 283 284 278 284 298 301 296 286 275 280 288 296 260 233 214 203 181 155 157 161 167 163 156 163 160 156 146 147 161 156 146 145 148 160 160 169